Regional Weather Roundup
Issued by NWS

Home | Current Version | Previous Version | Graphics & Text | Print | Product List | Glossary On
Versions: 1 2 3 4 5 6 7 8 9 10 11 12 13 14 15 16 17 18 19 20 21 22 23 24 25 26 27 28 29 30 31 32 33 34 35 36 37 38 39 40 41 42 43 44 45 46 47 48 49 50
656
ASUS45 KSLC 260610
RWRUT

UTAH REGIONAL WEATHER ROUNDUP
NATIONAL WEATHER SERVICE SALT LAKE CITY UT
1200 AM MDT FRI AUG 26 2016

UTZ001>011-023>025-260700-

NORTHERN UTAH

CITY           SKY/WX    TMP DP  RH WIND       PRES   REMARKS
BRIGHAM CITY     N/A     62  33  34 W5        30.03S
HILL AFB         N/A     64  27  24 SE13      30.05S
LOGAN            N/A     61  34  36 SW9       30.06R
OGDEN            N/A     62  30  29 S8        30.03R
PROVO AIRPORT    N/A     68  37  32 S14       30.07R
SALT LAKE CITY   N/A     70  29  21 E6        30.01S
VERNAL           N/A     59  40  49 S5        30.18R
WENDOVER         N/A     64  30  27 N3        30.02S
HEBER CITY       N/A     55  32  41 CALM      30.13R
WEST JORDAN    CLEAR     64  32  29 CALM      30.05S

$$

UTZ012>022-026-027-260700-

SOUTHERN/CENTRAL UTAH

CITY           SKY/WX    TMP DP  RH WIND       PRES   REMARKS
BLANDING         N/A     54  52  93 SW3       30.35S
BRYCE CANYON   LGT RAIN  50  46  86 SE13      30.37S
CEDAR CITY       N/A     63  43  48 SE12      30.15F
MILFORD          N/A     61  42  49 W5        30.11F
MOAB/CYNLANDS    N/A     64  46  52 E15       30.15S
PRICE            N/A     56  38  50 NE6       30.21R
ST GEORGE        N/A     75  46  35 E17G24    30.04F

$$

REGIONAL REPORTS     COLORADO/ARIZONA

CITY           SKY/WX    TMP DP  RH WIND       PRES   REMARKS
CRAIG, CO        N/A     57  37  47 CALM      30.23S
GRAND JUNCTION   N/A     57  50  77 E10       30.21S
RIFLE            N/A     53  49  86 CALM      30.27F
MONTROSE       CLOUDY    54  47  77 S18       30.31F
CORTEZ         CLOUDY    55  52  89 N3        30.28F
PAGE, AZ       LGT RAIN  64  55  72 S6        30.17F
GRAND CANYON     N/A    N/A N/A N/A MISG      30.27F
KINGMAN          N/A     79  52  38 S8        29.98F
FLAGSTAFF      MOCLDY    52  50  93 CALM      30.31R

$$

REGIONAL REPORTS    NEVADA/IDAHO/WYOMING

CITY           SKY/WX    TMP DP  RH WIND       PRES   REMARKS
LAS VEGAS, NV    N/A     88  31  13 SW7       29.80S
ELY              N/A     56  31  38 S8        30.13F
ELKO             N/A     61  18  18 E9        30.09R
POCATELLO, ID    N/A     55  30  38 SW8       30.06R
BURLEY           N/A     53  38  56 SW5       30.03S
EVANSTON, WY     N/A     51  28  41 E14       30.22S
ROCK SPRINGS     N/A     50  35  56 E5        30.24F

$$




USA.gov is the U.S. government's official web portal to all federal, state and local government web resources and services.